TimeCDT,TemperatureF,Dew PointF,Humidity,Sea Level PressureIn,VisibilityMPH,Wind Direction,Wind SpeedMPH,Gust SpeedMPH,PrecipitationIn,Events,Conditions,WindDirDegrees,DateUTC
12:52 AM,41.0,37.0,86,29.82,10.0,WNW,6.9,-,N/A,,Overcast,290,2013-10-19 05:52:00
1:52 AM,41.0,37.0,86,29.82,10.0,WNW,10.4,-,N/A,,Overcast,290,2013-10-19 06:52:00
2:52 AM,39.9,37.0,89,29.81,10.0,WNW,5.8,-,0.00,,Overcast,290,2013-10-19 07:52:00
3:52 AM,39.0,36.0,89,29.82,10.0,NNW,6.9,-,N/A,,Overcast,340,2013-10-19 08:52:00
4:52 AM,37.9,33.1,83,29.83,10.0,North,6.9,-,N/A,,Overcast,10,2013-10-19 09:52:00
5:52 AM,37.0,28.9,73,29.84,10.0,North,4.6,-,N/A,,Overcast,350,2013-10-19 10:52:00
6:52 AM,36.0,30.0,79,29.86,10.0,NW,6.9,-,N/A,,Overcast,320,2013-10-19 11:52:00
7:52 AM,36.0,28.9,76,29.86,10.0,NW,4.6,-,N/A,,Overcast,310,2013-10-19 12:52:00
8:52 AM,37.0,28.9,73,29.88,10.0,NW,4.6,-,N/A,,Overcast,320,2013-10-19 13:52:00
9:52 AM,37.9,26.1,62,29.88,10.0,NNW,3.5,-,N/A,,Overcast,330,2013-10-19 14:52:00
10:52 AM,39.0,26.1,60,29.87,10.0,North,5.8,-,N/A,,Overcast,360,2013-10-19 15:52:00
11:52 AM,39.9,27.0,60,29.87,10.0,Calm,Calm,-,N/A,,Overcast,0,2013-10-19 16:52:00
12:52 PM,41.0,28.9,62,29.86,10.0,South,4.6,-,N/A,,Overcast,180,2013-10-19 17:52:00
1:52 PM,45.0,32.0,60,29.82,10.0,Calm,Calm,-,N/A,,Scattered Clouds,0,2013-10-19 18:52:00
2:52 PM,46.9,33.1,59,29.78,10.0,South,4.6,-,N/A,,Scattered Clouds,190,2013-10-19 19:52:00
3:52 PM,48.0,35.1,61,29.77,10.0,SE,3.5,-,N/A,,Overcast,130,2013-10-19 20:52:00
4:52 PM,48.9,37.0,64,29.75,10.0,SE,8.1,-,N/A,,Overcast,130,2013-10-19 21:52:00
5:52 PM,48.0,39.0,71,29.74,10.0,ESE,4.6,-,N/A,,Overcast,110,2013-10-19 22:52:00
6:52 PM,46.0,37.9,73,29.73,10.0,SE,6.9,-,N/A,,Overcast,140,2013-10-19 23:52:00
7:52 PM,44.1,37.0,76,29.70,10.0,East,3.5,-,N/A,,Overcast,100,2013-10-20 00:52:00
8:52 PM,44.1,37.9,79,29.68,10.0,ESE,3.5,-,N/A,,Overcast,120,2013-10-20 01:52:00
9:52 PM,44.1,39.0,82,29.67,10.0,Calm,Calm,-,N/A,,Overcast,0,2013-10-20 02:52:00
10:52 PM,44.1,41.0,89,29.67,10.0,NE,5.8,-,0.01,Rain,Light Rain,50,2013-10-20 03:52:00
11:52 PM,43.0,41.0,93,29.64,10.0,ENE,4.6,-,0.00,,Overcast,60,2013-10-20 04:52:00